Weather in Savrukha

Russia / Samara Oblast     53°36′55″N   51°40′56″E
temp.,
°C
wind,
m/s
gust,
m/s
humid.,
%
clouds,
%
prec.,
mm/h
press.,
hPa
HPBL,
m
9 may, sun
sun901:00+13ese225687 0.0 101514
04:00+12ese346031 0.0 101559
07:00+14se24639 0.0 1015134
10:00+20s46435 0.0 1015932
13:00+23s45355 0.0 10142279
16:00+23s4535100 0.0 10142486
19:00+20se355592 0.0 101486
22:00+16se48507 0.0 1015111
10 may, mon
mon1001:00+15ese4105388 0.0 1015141
04:00+14ese385786 0.0 1016150
07:00+15e376399 0.0 1018208
10:00+21ese574799 0.0 1018698
13:00+23ese563775 0.0 10191989
16:00+23ese563675 0.0 10192314
19:00+20e3655100 0.0 1020118
22:00+16e335754 0.0 102126
11 may, tue
tue1101:00+15e346438 0.0 102257
04:00+13e337269 0.0 102340
07:00+16e3772100 0.0 1024188
10:00+21ese4551100 0.0 1025726
13:00+23ese4640100 0.0 10262340
16:00+24ese5637100 0.0 10262369
19:00+21ese3355100 0.0 102638
22:00+17e3663100 0.0 102788
12 may, wed
wed1201:00+17ese3757100 0.0 1028154
04:00+14e336916 0.0 102834
07:00+16e366310 0.0 1029205
10:00+21ese4543100 0.0 1029922
13:00+24ese4634100 0.0 10291991
16:00+24ese4533100 0.0 10282120
19:00+21se335338 0.0 102850
22:00+16ese225336 0.0 102816
13 may, thu
thu1301:00+14e225518 0.0 102820
04:00+13e33587 0.0 102923
07:00+16e365927 0.0 1029172
10:00+22se454145 0.0 1029794
13:00+25se45309 0.0 10281890
16:00+25se453127 0.0 10271977
19:00+22ese3451100 0.0 102746
22:00+18sse115231 0.0 102711